ラ・サグラ彗星

233P/La Sagra (2015)

English version
Home page
Updated on March 19, 2021

---------------------------------------------------------------------

・ プロフィール

・ 軌道要素

Epoch 2015 June 27.0 TT = JDT 2457200.5                                         
T 2015 June 25.44160 TT                                 Rudenko                 
q   1.7865360            (2000.0)            P               Q                  
n   0.18669010     Peri.   27.24847     -0.20306152     -0.96077431             
a   3.0319487      Node    74.96773     +0.85898292     -0.26739027             
e   0.4107631      Incl.   11.27866     +0.47001527     +0.07358779             
P   5.28                                                                        
From 80 observations 2005 Feb. 9-2021 Mar. 12, mean residual 0".7.              

・ 光度変化

        m1 = 16.5 + 5 logΔ + 10.0 log r

---------------------------------------------------------------------

軌道要素はM.P.E.C. 2021-F20に掲載されたものです。
光度グラフはComet for Windowsで作成したものです。

---------------------------------------------------------------------

Copyright(C) Seiichi Yoshida (comet@aerith.net). All rights reserved.